Temperature
14 16 16 16 16 16 14 14 14 15 15 17 18 18 19 21 21 21 22 22 23 23 22 22 21 20 19 19 18 17 17 17 17 16 16 15 15 15 14 14 14 14 14 14
14 15 15 15 16 16 16 15 15 15 16 17 18 19 19 20 21 21 22 22 22 22 22 22 21 21 20 19 18 18 17 17 17 16 16 16 16 15 15 15 15 15 15 14
13 13 14 14 15 15 15 15 15 15 17 17 16 16 18 20 21 21 22 22 21 21 22 22 21 20 20 19 18 18 18 17 17 16 16 16 16 15 15 15 15 15 15 15
12 13 13 15 16 16 15 16 16 16 16 16 16 18 20 20 20 21 22 22 22 21 21 21 20 19 19 18 18 18 17 17 17 17 16 16 16 15 15 15 15 15 15 14
12 13 14 15 16 16 15 15 16 15 15 16 18 18 19 20 21 21 21 21 21 20 20 20 19 18 18 18 18 17 17 17 17 17 16 16 16 15 15 15 15 14 14 14
12 13 14 15 16 16 15 15 16 15 15 16 17 16 17 19 20 21 20 20 19 19 19 18 17 17 17 16 16 16 16 16 16 16 16 16 16 15 15 15 14 14 13 13
12 13 14 15 15 16 14 14 14 14 14 15 16 17 18 18 19 19 18 18 18 18 17 17 16 15 15 15 14 14 14 14 15 15 15 16 15 15 15 14 14 13 13 13
12 12 13 14 15 14 13 14 13 14 14 16 18 17 17 17 17 17 17 17 17 16 16 15 14 14 14 13 13 13 13 13 13 13 14 14 14 14 14 14 13 13 13 13
11 12 13 13 14 14 13 13 13 13 14 16 17 17 16 16 16 17 17 16 16 15 15 14 13 13 13 12 12 12 12 12 12 12 12 12 13 13 13 13 13 12 12 12
11 12 12 13 14 14 13 13 13 13 14 16 16 17 16 16 17 17 16 16 15 14 14 13 13 13 12 12 12 11 11 11 11 11 11 11 10 11 11 12 12 12 12 12
10 11 13 13 13 13 13 13 13 14 15 16 17 18 17 17 17 17 16 15 15 14 14 13 13 13 13 12 12 11 11 11 11 11 11 10 10 11 11 11 12 12 11 11
9 11 11 11 12 12 12 12 13 14 15 17 18 18 18 17 17 17 16 16 15 14 14 14 13 13 13 12 12 11 11 11 10 10 10 11 11 11 11 11 11 11 11 11
9 9 10 10 11 12 12 13 13 14 15 16 18 19 18 17 17 17 16 16 15 15 14 14 13 13 13 12 12 11 11 11 11 10 10 10 10 11 11 11 11 11 11 11
8 8 9 10 11 13 13 13 13 14 16 16 18 19 18 17 17 17 17 16 15 15 14 14 14 13 13 12 11 11 11 11 11 10 10 10 10 10 10 10 10 10 10 10
8 8 8 9 10 11 12 13 13 15 16 17 17 18 17 17 17 17 17 16 15 15 15 15 14 14 13 12 11 11 11 11 11 10 10 10 10 10 10 10 10 10 10 10
8 8 8 9 9 10 11 12 13 15 16 17 18 17 17 17 17 17 17 16 16 16 16 15 15 14 13 12 12 11 11 11 11 10 10 10 10 10 10 10 10 10 9 9
7 8 8 8 8 9 10 12 13 15 17 18 18 18 18 18 18 17 17 17 16 16 16 15 15 14 14 13 12 11 11 11 11 10 10 10 10 10 10 10 10 10 9 9
7 8 8 8 8 8 10 13 14 16 17 18 18 18 19 19 18 18 17 17 17 17 16 16 15 14 14 13 12 11 11 10 10 10 10 10 10 10 10 10 9 9 9 9
7 7 7 7 8 8 10 13 15 17 18 18 18 19 20 20 19 18 18 17 17 17 17 16 15 14 14 13 12 11 10 10 10 10 10 10 10 10 10 10 10 9 9 9
6 6 7 9 9 9 10 13 16 17 18 19 19 19 20 20 20 19 18 18 18 17 17 16 16 14 13 13 12 11 10 10 10 10 10 10 10 10 10 10 10 10 9 9
6 6 7 9 10 9 10 12 15 17 19 19 19 20 20 20 20 19 18 18 18 17 17 16 15 14 13 12 11 10 10 10 10 10 10 10 10 10 10 10 10 10 10 10
6 6 7 9 10 9 10 11 14 17 19 19 20 20 20 20 20 19 19 18 18 18 17 16 15 14 13 12 11 10 10 9 10 10 10 10 10 10 10 10 10 9 9 9
7 7 7 8 9 10 10 11 13 16 18 19 20 20 20 20 19 19 19 19 18 18 17 16 15 14 13 12 11 10 9 9 9 9 9 9 9 9 9 9 9 9 9 9
7 7 8 9 10 10 10 11 13 16 18 19 20 20 19 19 20 20 19 19 18 18 17 16 14 13 13 12 10 9 9 9 9 9 9 9 9 9 9 9 9 9 8 8
8 8 8 9 9 9 10 11 13 16 18 19 19 19 19 19 20 20 19 19 18 18 16 15 14 13 12 11 10 9 9 9 9 9 9 9 8 8 8 8 8 8 8 7
8 8 8 8 9 10 10 10 12 14 17 19 19 19 19 19 19 19 19 19 18 17 16 15 14 13 12 11 10 9 9 9 9 9 8 8 8 8 8 8 8 8 8 7
8 8 8 9 10 10 10 11 11 14 16 18 19 18 18 19 19 19 18 18 18 17 16 14 14 13 12 10 9 9 9 9 9 9 8 8 8 8 8 8 8 8 8 8
Wind_Speed
7 8 5 8 12 7 9 9 10 10 12 14 12 11 9 8 9 9 9 8 9 10 9 8 8 8 8 7 7 7 7 7 8 7 7 8 8 9 8 8 8 7 6 6
5 6 6 9 15 13 11 11 11 14 18 13 14 10 10 12 11 11 11 9 8 9 9 9 8 8 8 8 7 7 8 9 7 6 7 7 8 8 8 9 8 7 7 6
5 5 7 8 10 8 7 7 8 14 19 14 10 12 12 12 10 11 11 7 6 7 7 7 7 7 9 8 6 7 8 8 7 7 7 7 7 8 9 9 8 7 7 6
3 2 6 7 3 3 6 9 8 13 17 15 12 12 10 9 9 10 7 4 6 6 5 3 2 4 6 5 6 8 8 8 8 8 8 7 8 8 8 7 7 6 6 5
4 4 7 7 3 2 4 6 5 17 20 12 6 4 6 5 4 2 2 4 6 7 7 6 5 3 2 2 4 5 7 8 8 7 7 7 8 8 7 6 5 4 4 5
4 4 4 4 10 10 1 6 18 22 20 11 0 0 5 2 6 8 9 9 8 8 9 9 7 7 8 5 2 2 4 6 6 7 8 8 8 6 5 5 6 6 4 3
4 3 2 6 14 8 7 11 20 18 17 10 5 4 2 5 7 8 9 8 8 9 8 6 5 7 8 6 4 3 4 3 2 4 6 7 5 6 7 7 7 6 5 2
1 2 2 9 9 7 5 10 12 13 16 12 7 4 4 6 7 8 8 7 7 8 7 5 5 7 7 4 3 4 4 4 3 1 1 2 4 5 7 7 6 5 3 1
5 2 4 7 5 3 6 10 10 13 16 13 7 3 2 4 6 6 7 6 5 7 6 4 4 4 3 1 3 4 4 4 3 3 3 3 4 4 3 4 4 4 2 1
8 8 14 12 4 7 9 11 12 11 12 13 9 3 3 5 5 5 5 5 5 6 5 2 1 0 1 1 1 3 3 2 2 3 4 4 3 3 2 3 3 3 2 2
8 12 12 7 8 11 13 15 14 13 12 11 9 4 6 6 6 6 5 4 4 5 4 3 2 3 3 3 3 3 3 2 3 3 4 4 4 2 2 2 2 3 2 2
7 10 12 19 16 13 15 16 14 15 17 15 9 5 7 7 6 6 6 5 4 4 3 3 2 3 2 4 4 4 3 2 2 2 3 4 4 5 8 6 6 4 1 2
11 15 17 20 19 13 11 14 15 14 12 13 11 3 6 7 6 6 6 6 6 6 5 3 2 1 2 5 5 5 3 2 2 2 2 3 3 4 3 4 7 8 8 6
13 12 12 15 15 13 11 13 14 12 9 8 7 2 4 5 5 7 7 7 6 5 5 4 2 2 4 5 5 5 4 3 3 2 2 2 3 2 2 2 1 2 5 8
13 14 15 18 18 14 10 10 12 12 10 10 9 5 4 7 9 9 8 6 5 5 5 4 4 4 5 6 6 5 4 3 2 2 2 3 3 2 2 2 2 2 2 4
20 18 16 16 16 13 10 10 10 11 10 10 10 9 7 9 9 7 7 8 7 7 7 6 6 5 6 6 6 4 3 5 4 3 3 3 3 3 3 3 3 3 2 2
19 19 21 21 19 16 13 10 10 10 10 11 11 11 7 7 7 8 8 8 8 7 6 7 6 6 7 7 6 4 3 4 5 4 3 3 3 3 4 4 4 3 1 2
17 16 16 17 16 16 16 14 12 11 10 10 10 9 5 8 11 11 9 7 5 5 6 7 7 7 7 7 5 4 4 3 2 2 2 3 3 4 4 3 3 2 1 1
16 17 17 17 15 14 14 15 14 12 11 9 9 9 7 9 10 8 7 8 8 8 7 7 11 9 8 7 6 4 4 3 2 2 2 4 4 4 3 3 2 2 2 2
15 18 19 18 17 15 15 15 14 14 12 9 9 9 7 8 8 7 8 8 8 6 6 9 9 8 8 7 7 4 4 4 4 3 3 4 4 3 3 2 3 3 2 1
16 20 20 20 20 19 17 16 14 14 13 9 8 9 9 7 7 8 7 7 6 6 9 12 9 7 7 7 7 5 5 5 4 4 4 4 3 3 3 3 3 2 2 2
15 18 20 19 19 20 18 16 14 13 12 10 9 9 8 7 7 8 7 6 7 11 9 8 7 10 11 9 5 5 5 5 5 4 4 3 3 3 3 3 3 3 3 3
14 16 18 18 18 18 17 15 15 14 11 10 10 9 9 7 7 7 7 5 7 13 10 8 11 16 15 8 5 5 5 6 5 5 4 4 3 4 4 5 4 4 4 4
15 17 18 18 17 15 17 18 16 14 11 9 8 7 6 5 5 4 4 11 14 14 9 12 17 17 14 6 6 5 5 6 6 5 5 4 4 5 5 5 5 4 4 4
15 15 17 19 17 15 14 16 16 14 14 9 7 4 4 5 5 5 7 11 16 14 9 14 19 16 9 6 6 6 5 5 6 6 5 5 4 5 5 5 4 4 4 3
13 13 13 15 14 13 13 13 13 13 12 11 7 4 1 2 7 8 7 10 13 14 11 9 10 10 7 7 7 6 6 6 6 5 5 5 5 5 5 5 5 4 3 4
11 11 12 13 12 12 12 12 13 14 12 10 7 3 2 4 7 8 10 10 10 10 10 9 8 7 7 7 6 6 6 5 5 5 5 5 5 5 5 5 4 4 4 4
Wind_Direction
252 265 267 264 271 239 207 212 216 238 241 248 252 256 265 270 274 284 283 257 219 201 198 196 195 198 203 211 202 191 197 216 225 210 198 192 190 190 187 188 194 191 199 216
292 292 293 276 271 261 244 238 242 257 264 252 250 255 265 269 272 277 277 261 224 196 187 193 198 201 204 209 200 191 207 222 227 207 194 192 188 182 184 193 196 192 203 215
271 306 332 281 257 246 243 243 243 265 272 270 257 249 248 258 264 262 268 262 210 187 186 188 192 197 212 215 189 195 217 225 216 203 199 197 186 179 187 191 190 195 200 203
254 329 255 252 272 258 271 272 270 286 290 278 253 251 253 247 247 256 260 228 177 155 138 133 163 203 219 214 199 204 217 227 222 211 210 199 191 195 195 188 191 192 194 197
185 219 275 315 1 333 313 295 4 340 331 311 257 257 280 247 221 216 133 116 107 104 103 90 72 76 138 196 217 223 230 235 235 226 221 206 203 203 193 181 178 169 177 187
184 186 234 329 320 315 255 320 349 343 336 325 199 244 283 41 95 95 93 95 98 97 91 80 66 76 80 75 78 281 271 256 245 235 229 221 204 184 177 171 165 157 159 175
204 204 282 341 330 2 44 329 326 329 330 320 276 256 305 85 91 98 95 90 89 87 84 85 90 88 81 71 53 0 340 327 278 240 232 227 196 165 161 160 155 150 145 163
215 171 87 4 1 24 334 305 314 329 339 330 320 355 59 84 100 101 96 89 89 94 89 74 70 83 79 52 17 25 38 40 31 10 253 205 165 151 154 155 145 132 118 89
310 297 352 332 327 13 331 322 326 331 338 341 339 350 68 106 108 108 111 108 103 107 96 67 52 83 105 359 6 36 48 47 47 47 40 74 115 127 133 139 134 132 131 175
308 308 316 306 315 329 332 327 320 318 324 344 330 282 181 157 148 140 129 126 123 119 120 131 157 153 222 253 69 57 45 35 49 69 67 63 78 116 147 174 160 146 156 219
273 288 299 289 327 331 328 329 328 324 325 332 329 269 209 195 176 163 147 142 139 144 160 190 224 252 239 195 152 106 75 53 46 67 93 91 81 83 158 174 162 153 191 213
289 307 306 301 310 321 319 321 322 322 326 331 326 262 209 203 186 165 158 153 156 177 203 230 251 280 239 181 157 133 108 74 60 81 97 108 106 89 61 65 65 81 126 185
296 303 294 290 293 295 298 305 309 308 310 320 327 269 196 194 186 167 164 170 187 206 218 233 283 332 142 154 151 144 148 153 129 109 107 118 122 117 101 56 54 53 46 51
310 316 302 296 291 291 289 297 300 301 306 321 343 344 190 190 180 184 191 197 196 202 212 215 221 181 156 149 146 146 150 155 143 136 132 132 133 132 136 139 79 37 38 51
310 321 311 303 295 288 285 294 304 311 321 341 359 350 228 208 203 204 202 184 177 201 216 209 203 190 158 147 145 151 154 149 130 120 125 129 128 124 127 135 122 104 83 67
314 320 333 337 328 314 300 295 299 304 316 331 338 331 266 229 224 208 186 172 180 210 217 210 210 187 156 147 145 152 159 151 135 121 108 103 103 103 103 112 116 116 108 83
317 324 333 335 333 326 311 295 286 289 302 313 314 315 283 223 218 215 205 196 202 215 212 208 205 166 151 150 154 158 146 134 124 110 101 99 95 97 109 118 125 129 144 192
307 309 313 313 316 317 314 305 292 286 286 290 294 303 271 215 216 217 206 185 189 224 229 213 182 154 149 151 156 153 144 136 130 130 124 112 103 98 104 107 116 120 99 116
321 319 318 319 320 318 314 307 298 288 283 279 281 285 259 227 226 216 176 167 190 220 227 191 168 153 152 162 159 153 149 145 137 121 112 121 110 103 107 114 112 118 129 118
332 326 324 326 329 331 324 314 303 290 279 267 272 280 267 236 216 192 176 193 207 203 176 164 156 151 152 160 156 148 151 148 140 126 111 114 118 120 124 121 110 106 112 113
337 333 331 332 331 334 330 320 307 288 278 262 254 264 264 245 201 179 179 213 218 170 161 160 155 151 148 152 149 143 146 140 134 129 129 126 124 123 122 108 93 92 90 80
334 334 331 330 329 333 333 327 318 296 279 264 253 254 252 231 195 188 202 202 171 161 156 156 152 155 155 145 138 145 143 134 125 119 119 121 118 115 111 106 92 76 65 58
329 331 330 328 325 325 326 330 331 319 288 265 255 248 234 213 183 178 204 191 160 161 156 159 160 156 149 140 143 148 144 136 132 127 122 116 111 110 108 104 99 94 86 77
327 330 329 325 323 325 332 335 332 326 309 284 263 247 216 192 196 192 143 151 158 151 152 159 156 152 144 140 143 141 134 130 127 125 120 114 109 105 107 110 108 102 97 92
321 324 327 328 327 327 328 330 331 335 338 330 318 297 218 180 170 160 148 156 156 146 144 161 159 150 141 138 139 136 132 133 132 131 129 127 123 117 114 115 117 116 111 103
313 316 317 314 312 315 322 328 332 332 329 324 321 320 270 139 128 130 139 147 147 142 142 145 145 138 135 135 137 138 135 132 127 126 134 137 137 130 126 126 125 119 111 98
304 309 313 315 317 320 322 324 328 326 318 305 293 274 218 148 133 138 142 145 143 139 138 137 136 134 133 134 136 136 133 130 127 125 125 127 130 132 136 136 130 112 97 92
Height
1492 1487 1486 1485 1482 1481 1486 1486 1488 1479 1472 1461 1455 1452 1450 1449 1448 1447 1446 1445 1444 1445 1449 1454 1457 1460 1463 1465 1467 1468 1470 1470 1471 1473 1474 1475 1477 1478 1480 1483 1486 1489 1491 1493
1493 1485 1485 1483 1476 1474 1475 1474 1474 1469 1461 1451 1448 1447 1446 1445 1444 1443 1441 1441 1441 1443 1447 1451 1454 1457 1460 1462 1464 1465 1467 1468 1469 1470 1471 1473 1474 1476 1478 1480 1483 1485 1487 1489
1498 1490 1487 1486 1472 1470 1471 1468 1468 1466 1453 1445 1444 1442 1440 1439 1439 1439 1438 1437 1438 1440 1445 1449 1452 1454 1457 1459 1461 1462 1463 1465 1466 1467 1468 1470 1472 1474 1475 1477 1479 1481 1484 1485
1497 1494 1496 1477 1466 1466 1467 1463 1462 1458 1447 1439 1437 1435 1435 1435 1435 1434 1435 1435 1436 1439 1443 1447 1449 1451 1453 1455 1456 1457 1459 1461 1462 1463 1465 1466 1468 1470 1471 1473 1475 1477 1480 1481
1496 1495 1487 1473 1467 1466 1467 1463 1458 1454 1443 1434 1432 1433 1431 1431 1431 1432 1433 1433 1435 1439 1443 1445 1447 1449 1450 1451 1451 1452 1453 1455 1457 1459 1460 1461 1463 1465 1466 1468 1470 1472 1475 1477
1491 1491 1488 1477 1467 1462 1464 1464 1457 1453 1446 1438 1435 1438 1433 1430 1430 1431 1433 1435 1437 1440 1443 1445 1447 1448 1449 1448 1448 1448 1448 1449 1451 1452 1453 1455 1457 1459 1461 1463 1465 1467 1470 1472
1487 1486 1481 1477 1469 1464 1477 1479 1465 1456 1448 1442 1439 1437 1434 1431 1432 1434 1436 1438 1441 1443 1444 1446 1447 1448 1448 1448 1448 1447 1446 1446 1446 1446 1447 1449 1451 1453 1455 1457 1460 1463 1466 1468
1484 1486 1487 1478 1473 1477 1482 1474 1466 1457 1449 1442 1439 1437 1434 1434 1435 1437 1439 1441 1443 1444 1445 1446 1448 1449 1449 1449 1448 1447 1446 1445 1444 1444 1444 1444 1446 1448 1451 1453 1457 1460 1462 1465
1489 1485 1481 1479 1478 1478 1476 1470 1463 1457 1451 1445 1441 1440 1438 1437 1438 1440 1441 1442 1444 1445 1446 1448 1449 1450 1450 1450 1450 1448 1447 1445 1444 1443 1443 1443 1443 1445 1448 1451 1454 1457 1460 1462
1489 1480 1480 1478 1475 1473 1470 1466 1462 1457 1452 1446 1442 1441 1440 1440 1441 1442 1443 1444 1445 1446 1448 1449 1451 1451 1451 1451 1450 1449 1447 1446 1445 1444 1444 1443 1444 1445 1448 1451 1454 1456 1458 1460
1489 1482 1476 1471 1472 1470 1465 1461 1457 1454 1450 1445 1442 1440 1441 1441 1442 1443 1444 1445 1446 1447 1449 1450 1451 1451 1451 1451 1450 1449 1448 1447 1446 1446 1445 1445 1445 1446 1448 1451 1453 1455 1456 1458
1490 1485 1482 1473 1470 1468 1464 1459 1456 1452 1446 1443 1441 1439 1439 1441 1442 1444 1445 1446 1447 1448 1450 1451 1451 1451 1450 1450 1450 1449 1448 1448 1447 1446 1446 1447 1447 1448 1450 1452 1453 1455 1456 1456
1488 1482 1477 1469 1466 1464 1461 1457 1454 1451 1448 1444 1440 1439 1438 1440 1442 1444 1446 1447 1448 1449 1450 1451 1451 1451 1450 1449 1449 1449 1449 1448 1448 1448 1448 1448 1449 1450 1451 1452 1453 1454 1455 1455
1485 1478 1469 1464 1460 1458 1457 1454 1451 1448 1446 1444 1440 1439 1439 1440 1442 1444 1446 1448 1449 1450 1450 1451 1451 1450 1450 1450 1450 1450 1449 1449 1448 1448 1449 1449 1450 1451 1451 1452 1453 1453 1454 1454
1480 1476 1469 1460 1454 1452 1452 1450 1447 1444 1442 1440 1439 1439 1439 1440 1441 1443 1446 1447 1448 1449 1450 1450 1450 1450 1450 1450 1450 1450 1450 1449 1449 1449 1449 1449 1450 1450 1451 1451 1452 1453 1453 1453
1475 1470 1464 1457 1451 1448 1447 1446 1444 1441 1440 1438 1437 1437 1437 1438 1440 1443 1445 1446 1447 1448 1449 1449 1450 1450 1450 1450 1450 1450 1450 1450 1449 1450 1450 1450 1451 1451 1452 1452 1453 1453 1454 1454
1473 1466 1459 1454 1449 1445 1443 1442 1440 1438 1438 1436 1436 1435 1434 1435 1437 1440 1443 1444 1446 1447 1448 1448 1449 1449 1449 1449 1449 1449 1450 1450 1450 1451 1452 1452 1452 1453 1453 1453 1454 1454 1455 1456
1475 1469 1464 1458 1451 1443 1437 1436 1435 1435 1435 1435 1434 1433 1431 1432 1434 1437 1440 1442 1444 1445 1446 1447 1447 1447 1448 1448 1448 1449 1449 1450 1451 1452 1452 1453 1454 1454 1454 1455 1455 1456 1456 1457
1472 1466 1460 1454 1448 1440 1434 1431 1430 1431 1432 1432 1432 1430 1429 1430 1431 1435 1438 1440 1441 1442 1444 1445 1445 1446 1447 1447 1448 1448 1449 1450 1451 1452 1453 1453 1454 1455 1455 1456 1456 1457 1457 1458
1468 1461 1455 1448 1442 1436 1430 1427 1426 1427 1428 1429 1429 1428 1427 1427 1429 1431 1435 1437 1438 1440 1442 1443 1443 1444 1445 1446 1447 1448 1449 1451 1452 1452 1453 1453 1455 1456 1456 1457 1458 1458 1459 1459
1463 1457 1450 1444 1438 1432 1427 1423 1422 1422 1424 1425 1425 1425 1424 1425 1426 1428 1431 1433 1436 1438 1439 1440 1441 1443 1444 1445 1446 1447 1449 1451 1452 1453 1454 1455 1456 1457 1458 1458 1459 1459 1460 1460
1460 1454 1447 1442 1437 1431 1425 1421 1418 1417 1419 1420 1421 1421 1421 1421 1422 1424 1427 1430 1433 1435 1437 1438 1440 1441 1442 1444 1445 1447 1449 1451 1452 1453 1454 1456 1457 1458 1459 1459 1460 1460 1461 1461
1458 1451 1445 1440 1436 1431 1424 1418 1414 1413 1414 1415 1416 1417 1417 1418 1419 1421 1424 1428 1430 1432 1434 1436 1438 1439 1441 1443 1444 1446 1449 1450 1452 1453 1455 1456 1458 1459 1459 1460 1460 1461 1461 1461
1454 1448 1442 1438 1434 1428 1422 1415 1411 1409 1409 1410 1412 1413 1413 1413 1415 1418 1421 1425 1428 1430 1432 1434 1436 1438 1440 1442 1443 1446 1448 1450 1452 1453 1455 1456 1457 1459 1459 1460 1460 1460 1460 1460
1451 1445 1440 1435 1431 1426 1421 1415 1409 1406 1406 1407 1408 1409 1410 1411 1413 1416 1419 1422 1425 1428 1430 1432 1434 1436 1439 1441 1443 1446 1448 1450 1451 1453 1454 1456 1457 1458 1459 1459 1460 1460 1459 1459
1447 1443 1438 1434 1431 1426 1422 1415 1409 1405 1404 1404 1405 1406 1407 1409 1410 1413 1416 1420 1423 1426 1428 1431 1433 1435 1437 1440 1443 1445 1448 1449 1451 1452 1453 1455 1456 1457 1458 1459 1459 1459 1459 1459
1442 1439 1435 1430 1427 1424 1420 1415 1409 1405 1403 1403 1403 1403 1404 1406 1408 1411 1414 1418 1421 1424 1427 1430 1432 1434 1437 1440 1443 1445 1447 1449 1451 1452 1453 1454 1455 1456 1457 1458 1459 1459 1459 1459